Regional Weather Roundup
Issued by NWS Jackson, KY

Home | Current Version | Previous Version | Graphics & Text | Print | Product List | Glossary On
Versions: 1 2 3 4 5 6 7 8 9 10 11 12 13 14 15 16 17 18 19 20 21 22 23 24 25 26 27 28 29 30 31 32 33 34 35 36 37 38 39 40 41 42 43 44 45 46 47 48 49 50
000
ASUS43 KJKL 190610
RWRJKL

EAST KENTUCKY HOURLY WEATHER ROUNDUP
NATIONAL WEATHER SERVICE JACKSON KY
200 AM EDT SUN APR 19 2015

NOTE: "FAIR" INDICATES FEW OR NO CLOUDS BELOW 12,000 FEET WITH
NO SIGNIFICANT WEATHER AND/OR OBSTRUCTIONS TO VISIBILITY.

* THESE REPORTS ARE NOT UNDER NWS QUALITY CONTROL AND MAY NOT
  REPORT WEATHER SUCH AS PRECIPITATION AND FOG.

KYZ079-080-083-085-087-088-110-112-115-119-120-190700
...EASTERN KENTUCKY...

CITY           SKY/WX    TMP DP  RH WIND       PRES   REMARKS
JACKSON        CLOUDY    68  43  40 CALM      29.93S
6HR MIN TEMP:  66; 6HR MAX TEMP:  74;

LONDON         CLOUDY    70  53  54 CALM      29.91F
6HR MIN TEMP:  68; 6HR MAX TEMP:  78;

SOMERSET*      CLOUDY    64  54  68 CALM      29.92S
MONTICELLO*    MOCLDY    68  61  78 SE5       29.93F
6HR MIN TEMP:  66; 6HR MAX TEMP:  74;

MIDDLESBORO*   CLOUDY    65  60  85 CALM      29.92F
6HR MIN TEMP:  65; 6HR MAX TEMP:  76;

HARLAN APT*    CLOUDY    64  54  68 CALM      29.94S
HAZARD APT*    CLOUDY    64  48  55 CALM      29.93S
BLACK MTN*       N/A     57  52  82 SE2         N/A
PIKEVILLE APT* MOCLDY    70  46  43 E5        29.95S
BIG SANDY*     CLOUDY    62  48  60 CALM      29.93F
6HR MIN TEMP:  61; 6HR MAX TEMP:  73;

MOREHEAD APT*  CLOUDY    70  41  35 E10G16    29.95S
$$

KYZ035-036-041-042-044-050-067-078-099-190700
...CENTRAL KENTUCKY...

CITY           SKY/WX    TMP DP  RH WIND       PRES   REMARKS
MT STERLING*   MOCLDY    66  45  45 E9        29.93F
FLEMING/MASON* CLEAR     63  46  55 E9        29.95F
DANVILLE*      CLOUDY    64  50  59 E6        29.91F
RICHMOND*      CLOUDY    68  46  45 E6        29.91F
LEXINGTON      CLOUDY    68  45  43 E10       29.91F
6HR MIN TEMP:  64; 6HR MAX TEMP:  69;

FRANKFORT      CLOUDY    64  47  53 E5        29.90S
6HR MIN TEMP:  64; 6HR MAX TEMP:  74;

$$

KYZ091>093-OHZ055-061-077-WVZ005-015-034-035-042-190700
...SOUTHERN OHIO/WEST VIRGINIA...

CITY           SKY/WX    TMP DP  RH WIND       PRES   REMARKS
COVINGTON      MOCLDY    67  44  43 E15       29.93F
COLUMBUS       MOCLDY    60  40  47 E9        29.99F
DAYTON         MOCLDY    59  43  55 E10       29.99F
WILMINGTON       N/A     58  48  69 NE9       29.97F
HUNTINGTON       N/A     65  43  44 NE5       29.93F
CHARLESTON       N/A     63  46  54 NE3       29.95F
PINEVILLE*     MOCLDY    58  53  81 MISG      30.03S
BECKLEY          N/A     64  51  62 SE6       30.02S
BLUEFIELD        N/A     66  52  60 SE8G18    30.03F
$$

VAZ002-007-008-TNZ017-027-036-066-071-190700
...SOUTHWEST VIRGINIA/EAST TENNESSEE...

CITY           SKY/WX    TMP DP  RH WIND       PRES   REMARKS
WISE*            N/A     63  52  67 S6        30.01S
JONESVILLE*    CLOUDY    64  57  77 E3        29.96F
ABINGDON*        N/A     62  57  84 CALM      29.99S
BRISTOL        CLOUDY    60  58  92 CALM      29.95F
KNOXVILLE      CLOUDY    64  63  96 CALM      29.90F
OAK RIDGE      CLOUDY    67  62  84 CALM      29.92F
CROSSVILLE       N/A     63  58  83 SE5       29.91F
NASHVILLE      CLOUDY    65  63  93 CALM      29.83F
$$

...KEY TO REMARKS...
VSB - VISIBILITY IN MILES
WCI - WIND CHILL INDEX
HX  - HEAT INDEX

$$



USA.gov is the U.S. government's official web portal to all federal, state and local government web resources and services.